Location: Bilsen
(53.7722°N, 9.8765°E)
Time: 09:49:53
(UTC+00:00)

Cosmos 1535 Rocket - Pass Details

Date: 18 February 2020
Orbit: 947 x 1005 km, 83.0° (Epoch: 05 April)

Event Time Altitude Azimuth Distance (km) Brightness Sun altitude
Rises 03:30:21 0° 348° (NNW) 3,710 7.6 -27.6°
Reaches altitude 10° 03:32:54 10° 346° (NNW) 2,749 6.9 -27.3°
Maximum altitude 03:39:10 72° 264° (W) 1,023 4.3 -26.4°
Enters shadow 03:41:18 43° 193° (SSW) 1,340 5.0 -26.1°
Exits shadow 03:45:57 - 181° (S) 2,936 6.8 -25.4°
Sets 03:47:46 0° 180° (S) 3,627 7.3 -25.2°
